x

Halibut Bank (46146) Wave Buoy

11:00 - Sun 26th Jun 2016 All times are PDT. -7 hours from GMT.

  • Sig Wave height 0.7ft
  • Peak Period 2s
  • Wind
    9mph
  • Sea Temp 63°f
  • Ar Temp 66°f
  • Sea Pressure 1019.3mb
  • Halibut Bank
  • Halibut Bank

More Historic Weather Station data

Upgrade to MSW Pro to gain access to the past 30 days of data for over 8000 Wavebouys and Weather Stations around the globe.

Join Pro

Comparision Forecast

View Surf forecast
   
Dom 06/26 11:00 0.7ft 2s 9
mph
1019.3mb 63f 66f
10:00 0.7ft 2s 13
mph
1019.4mb 64f 67f
9:00 0.7ft 2s 11 13 mph 1019.5mb 64f 66f
8:00 0.7ft 2s 11 13 mph 1019.9mb 64f 67f
7:00 1ft 6s 11 13 mph 1020.2mb 64f 67f
6:00 0.7ft 3s 9 11 mph 1020.8mb 65f 67f
5:00 1ft 3s 11
mph
1021.3mb 65f 65f
4:00 1.3ft 3s 11 13 mph 1021.7mb 64f 65f
3:00 1.3ft 3s 11
mph
1022.4mb 63f 65f
2:00 1.6ft 3s 13 18 mph 1022.8mb 62f 63f
1:00 1.6ft 3s 16 18 mph 1023mb 62f 62f
12:00 1.6ft 3s 18 20 mph 1023.4mb 62f 61f
11:00 1.3ft 3s 13 16 mph 1023.8mb 61f 61f
10:00 1.6ft 4s 13 18 mph 1024.3mb 61f 60f
9:00 1.6ft 4s 16 18 mph 1024.5mb 62f 60f
8:00 1.3ft 3s 13 16 mph 1024.5mb 62f 60f
7:00 0.7ft 3s 7
mph
1024.4mb 61f 60f
6:00 0.3ft 3s 9
mph
1024.4mb 61f 59f
5:00 0.3ft 3s 7
mph
1024.2mb 61f 60f
4:00 0.7ft 3s 4 7 mph 1024mb 61f 60f
3:00 0.3ft 3s 2
mph
1023.9mb 61f 60f
2:00 0.3ft 2s 4
mph
1023.7mb 61f 60f
1:00 0.7ft 2s 4 7 mph 1023.6mb 61f 61f
12:00 0.7ft 2s 11 13 mph 1023.3mb 61f 62f
Sáb 06/25 11:00 0.7ft 2s 11
mph
1023.2mb 61f 62f
10:00 0.7ft 3s 11 13 mph 1023.1mb 62f 63f
9:00 0.3ft 2s 11 13 mph 1022.9mb 63f 63f
8:00 0.3ft 3s 4
mph
1023.2mb 63f 63f
7:00 0.7ft 7s 4
mph
1023.7mb 63f 62f
6:00 0.3ft 2s 4 7 mph 1024mb 62f 62f
5:00 0.3ft 6s 4
mph
1024.6mb 63f 61f
4:00 0.3ft 2s 4
mph
1025.1mb 63f 61f
3:00 0.7ft 4s 2 4 mph 1025.5mb 62f 60f
2:00 0.7ft 2s 4 7 mph 1025.6mb 62f 59f
1:00 0.7ft 3s 4 7 mph 1025.7mb 61f 59f
12:00 1ft 3s 9 11 mph 1025.8mb 60f 58f
11:00 1ft 3s 9 11 mph 1025.6mb 60f 58f
10:00 1.3ft 3s 11 13 mph 1025.4mb 60f 58f
9:00 1.3ft 3s 13
mph
1025.2mb 60f 58f
8:00 1.3ft 3s 13 16 mph 1024.9mb 60f 58f
7:00 1ft 3s 13 16 mph 1024.9mb 61f 58f
6:00 0.7ft 3s 13
mph
1024.8mb 61f 59f
5:00 0.3ft 3s 11 13 mph 1024.6mb 62f 59f
4:00 0.3ft 2s  -  mph 1024.6mb 61f 60f
3:00 0.3ft 5s  -  2 mph 1024.5mb 61f 60f
2:00 0.3ft 3s 4
mph
1024.4mb 61f 59f
1:00 0.3ft 4s 9
mph
1024.2mb 61f 59f
12:00 0.3ft 2s 4 9 mph 1024mb 61f 61f
Sex 06/24 11:00 0.3ft 6s 2
mph
1023.7mb 61f 61f
10:00 0.3ft 3s 2
mph
1023.5mb 61f 61f
9:00 0.3ft 6s 2
mph
1023mb 61f 61f
8:00 0.3ft 2s 2 4 mph 1023mb 62f 61f
7:00 0.7ft 3s 4
mph
1022.9mb 62f 61f
6:00 0.7ft 6s 7
mph
1022.9mb 62f 61f
5:00 0.7ft 6s 9 11 mph 1023mb 62f 61f
4:00 0.7ft 2s 9
mph
1022.9mb 62f 61f
3:00 1ft 3s 9 11 mph 1022.8mb 62f 60f
2:00 1ft 3s 11 13 mph 1022.4mb 61f 59f
1:00 1ft 3s 9
mph
1021.9mb 61f 59f
12:00 1.3ft 3s 7 9 mph 1021.3mb 61f 59f
11:00 1.3ft 3s 9 11 mph 1020.8mb 60f 58f
10:00 1.3ft 3s 13 16 mph 1020.4mb 60f 57f
9:00 1.3ft 3s 11 13 mph 1019.8mb 60f 57f
8:00 1.3ft 3s 13 16 mph 1019.3mb 60f 56f
7:00 1.6ft 3s 13 16 mph 1018.9mb 61f 56f
6:00 1.3ft 3s 13 16 mph 1018.4mb 61f 57f
5:00 1.3ft 3s 9 13 mph 1018.1mb 60f 57f
4:00 1.3ft 3s 7 9 mph 1017.7mb 60f 59f
3:00 1.3ft 4s 9 11 mph 1017.3mb 61f 59f
2:00 1.6ft 4s 11 13 mph 1016.8mb 61f 60f
1:00 1.3ft 3s 13
mph
1016.7mb 61f 60f
12:00 1.3ft 3s 13 16 mph 1016.6mb 61f 60f
Qui 06/23 11:00 1.3ft 3s 13 16 mph 1016.4mb 61f 60f
10:00 0.7ft 2s 18 22 mph 1015.9mb 61f 61f
9:00 0.7ft 3s 9 11 mph 1015.6mb 62f 62f
8:00 0.7ft 3s  -  2 mph 1015.4mb 62f 62f
7:00 1ft 3s 7
mph
1015.4mb 62f 61f
6:00 1ft 3s 11
mph
1015.3mb 62f 61f
5:00 1.3ft 3s 11 13 mph 1015.3mb 62f 60f
4:00 1.6ft 3s 13 18 mph 1015.7mb 62f 60f
3:00 2ft 3s 18 20 mph 1015.3mb 62f 60f
2:00 2.5ft 3s 18 22 mph 1015.3mb 62f 59f
1:00 2.5ft 4s 18 22 mph 1014.9mb 62f 59f
12:00 2.5ft 4s 20 25 mph 1014.6mb 61f 58f
11:00 2ft 3s 18 20 mph 1014.2mb 61f 58f
10:00 2ft 3s 16 18 mph 1014mb 61f 57f
9:00 1.6ft 3s 16 18 mph 1013.6mb 61f 56f
8:00 1.6ft 3s 18 20 mph 1013.4mb 61f 57f